{"data":{"norad_id":54045,"epoch":"2026-05-24T15:23:19.091616Z","epoch_age_seconds":116117,"freshness":"FRESH","line1":"1 54045U 22133D   26144.64119319  .00027718  00000+0  53336-3 0  9997","line2":"2 54045  34.9893 227.4306 0006397 359.7861   0.2857 15.46895557201576","mean_motion":15.46895557,"eccentricity":0.0006397,"inclination_deg":34.9893,"raan_deg":227.4306,"arg_perigee_deg":359.7861,"mean_anomaly_deg":0.2857,"bstar":0.00053336,"rev_number":20157,"period_min":93.089671987467,"perigee_km":421.46155394389,"apogee_km":430.16652890629,"semimajor_km":6803.9510414251,"source":"CELESTRAK","updated_at":"2026-05-25T13:37:58.543504Z"}}